Time,TemperatureF,DewpointF,PressureIn,WindDirection,WindDirectionDegrees,WindSpeedMPH,WindSpeedGustMPH,Humidity,HourlyPrecipIn,Conditions,Clouds,dailyrainin,SoftwareType,DateUTC
2013-10-29 00:00:00,53.0,51.6,30.25,N/A,-737280,0.0,0.0,95,0.00,,,0.00,Wunderground v.1.13,2013-10-29 04:00:00,
2013-10-29 00:10:00,53.0,51.6,30.25,N/A,-737280,0.0,0.0,95,0.00,,,0.00,Wunderground v.1.13,2013-10-29 04:10:00,
2013-10-29 00:20:00,53.0,51.6,30.25,N/A,-737280,0.0,0.0,95,0.00,,,0.00,Wunderground v.1.13,2013-10-29 04:20:00,
2013-10-29 00:30:00,53.0,51.6,30.25,N/A,-737280,0.0,0.0,95,0.00,,,0.00,Wunderground v.1.13,2013-10-29 04:30:00,
2013-10-29 00:40:00,53.0,51.6,30.25,N/A,-737280,0.0,0.0,95,0.00,,,0.00,Wunderground v.1.13,2013-10-29 04:40:00,
2013-10-29 00:50:00,53.7,53.1,30.24,N/A,-737280,0.0,0.0,98,0.00,,,0.00,Wunderground v.1.13,2013-10-29 04:50:00,
2013-10-29 01:00:00,53.7,53.1,30.24,N/A,-737280,0.0,0.0,98,0.00,,,0.00,Wunderground v.1.13,2013-10-29 05:00:00,
2013-10-29 01:10:00,53.7,53.1,30.24,N/A,-737280,0.0,0.0,98,0.00,,,0.00,Wunderground v.1.13,2013-10-29 05:10:00,
2013-10-29 01:20:00,54.0,53.4,30.25,N/A,-737280,0.0,0.0,98,0.00,,,0.00,Wunderground v.1.13,2013-10-29 05:20:00,
2013-10-29 01:30:00,54.0,53.4,30.25,N/A,-737280,0.0,0.0,98,0.00,,,0.00,Wunderground v.1.13,2013-10-29 05:30:00,
2013-10-29 01:40:00,54.0,53.4,30.25,N/A,-737280,0.0,0.0,98,0.00,,,0.00,Wunderground v.1.13,2013-10-29 05:40:00,
2013-10-29 01:50:00,54.0,53.2,30.25,N/A,-737280,0.0,0.0,97,0.00,,,0.00,Wunderground v.1.13,2013-10-29 05:50:00,
2013-10-29 02:00:00,54.0,53.2,30.25,N/A,-737280,0.0,0.0,97,0.00,,,0.00,Wunderground v.1.13,2013-10-29 06:00:00,
2013-10-29 02:10:00,54.0,53.2,30.25,N/A,-737280,0.0,0.0,97,0.00,,,0.00,Wunderground v.1.13,2013-10-29 06:10:00,
2013-10-29 02:20:00,53.5,52.7,30.25,N/A,-737280,0.0,0.0,97,0.00,,,0.00,Wunderground v.1.13,2013-10-29 06:20:00,
2013-10-29 02:30:00,53.5,52.7,30.25,N/A,-737280,0.0,0.0,97,0.00,,,0.00,Wunderground v.1.13,2013-10-29 06:30:00,
2013-10-29 02:40:00,53.5,52.7,30.25,N/A,-737280,0.0,0.0,97,0.00,,,0.00,Wunderground v.1.13,2013-10-29 06:40:00,
2013-10-29 02:50:00,53.0,52.5,30.26,N/A,-737280,0.0,0.0,98,0.00,,,0.00,Wunderground v.1.13,2013-10-29 06:50:00,
2013-10-29 03:00:00,53.0,52.5,30.26,N/A,-737280,0.0,0.0,98,0.00,,,0.00,Wunderground v.1.13,2013-10-29 07:00:00,
2013-10-29 03:10:00,53.0,52.5,30.26,N/A,-737280,0.0,0.0,98,0.00,,,0.00,Wunderground v.1.13,2013-10-29 07:10:00,
2013-10-29 03:20:00,53.2,52.9,30.25,N/A,-737280,0.0,0.0,99,0.00,,,0.00,Wunderground v.1.13,2013-10-29 07:20:00,
2013-10-29 03:30:00,53.2,52.9,30.25,N/A,-737280,0.0,0.0,99,0.00,,,0.00,Wunderground v.1.13,2013-10-29 07:30:00,
2013-10-29 03:40:00,53.2,52.9,30.25,N/A,-737280,0.0,0.0,99,0.00,,,0.00,Wunderground v.1.13,2013-10-29 07:40:00,
2013-10-29 03:50:00,53.0,52.7,30.25,N/A,-737280,0.0,0.0,99,0.00,,,0.00,Wunderground v.1.13,2013-10-29 07:50:00,
2013-10-29 04:00:00,53.0,52.7,30.25,N/A,-737280,0.0,0.0,99,0.00,,,0.00,Wunderground v.1.13,2013-10-29 08:00:00,
2013-10-29 04:10:00,53.0,52.7,30.25,N/A,-737280,0.0,0.0,99,0.00,,,0.00,Wunderground v.1.13,2013-10-29 08:10:00,
2013-10-29 04:20:00,53.1,53.1,30.27,N/A,-737280,0.0,0.0,100,0.00,,,0.00,Wunderground v.1.13,2013-10-29 08:20:00,
2013-10-29 04:30:00,53.1,53.1,30.27,N/A,-737280,0.0,0.0,100,0.00,,,0.00,Wunderground v.1.13,2013-10-29 08:30:00,
2013-10-29 04:40:00,53.1,53.1,30.27,N/A,-737280,0.0,0.0,100,0.00,,,0.00,Wunderground v.1.13,2013-10-29 08:40:00,
2013-10-29 04:50:00,53.2,53.2,30.27,N/A,-737280,0.0,0.0,100,0.00,,,0.00,Wunderground v.1.13,2013-10-29 08:50:00,
2013-10-29 05:00:00,53.2,53.2,30.27,N/A,-737280,0.0,0.0,100,0.00,,,0.00,Wunderground v.1.13,2013-10-29 09:00:00,
2013-10-29 05:10:00,53.2,53.2,30.27,N/A,-737280,0.0,0.0,100,0.00,,,0.00,Wunderground v.1.13,2013-10-29 09:10:00,
2013-10-29 05:20:00,53.2,53.2,30.29,N/A,-737280,0.0,0.0,100,0.00,,,0.00,Wunderground v.1.13,2013-10-29 09:20:00,
2013-10-29 05:30:00,53.2,53.2,30.29,N/A,-737280,0.0,0.0,100,0.00,,,0.00,Wunderground v.1.13,2013-10-29 09:30:00,
2013-10-29 05:40:00,53.2,53.2,30.29,N/A,-737280,0.0,0.0,100,0.00,,,0.00,Wunderground v.1.13,2013-10-29 09:40:00,
2013-10-29 05:50:00,53.7,53.7,30.28,N/A,-737280,0.0,0.0,100,0.00,,,0.00,Wunderground v.1.13,2013-10-29 09:50:00,
2013-10-29 06:00:00,53.7,53.7,30.28,N/A,-737280,0.0,0.0,100,0.00,,,0.00,Wunderground v.1.13,2013-10-29 10:00:00,
2013-10-29 06:10:00,53.7,53.7,30.28,N/A,-737280,0.0,0.0,100,0.00,,,0.00,Wunderground v.1.13,2013-10-29 10:10:00,
2013-10-29 06:20:00,53.5,53.5,30.29,N/A,-737280,0.0,0.0,100,0.00,,,0.00,Wunderground v.1.13,2013-10-29 10:20:00,
2013-10-29 06:30:00,53.5,53.5,30.29,N/A,-737280,0.0,0.0,100,0.00,,,0.00,Wunderground v.1.13,2013-10-29 10:30:00,
2013-10-29 06:40:00,53.5,53.5,30.29,N/A,-737280,0.0,0.0,100,0.00,,,0.00,Wunderground v.1.13,2013-10-29 10:40:00,
2013-10-29 06:50:00,53.8,53.8,30.29,N/A,-737280,0.0,0.0,100,0.00,,,0.00,Wunderground v.1.13,2013-10-29 10:50:00,
2013-10-29 07:00:00,53.8,53.8,30.29,N/A,-737280,0.0,0.0,100,0.00,,,0.00,Wunderground v.1.13,2013-10-29 11:00:00,
2013-10-29 07:10:00,53.8,53.8,30.29,N/A,-737280,0.0,0.0,100,0.00,,,0.00,Wunderground v.1.13,2013-10-29 11:10:00,
2013-10-29 07:20:00,54.3,54.3,30.29,N/A,-737280,0.0,0.0,100,0.00,,,0.00,Wunderground v.1.13,2013-10-29 11:20:00,
2013-10-29 07:30:00,54.3,54.3,30.29,N/A,-737280,0.0,0.0,100,0.00,,,0.00,Wunderground v.1.13,2013-10-29 11:30:00,
2013-10-29 07:40:00,54.3,54.3,30.29,N/A,-737280,0.0,0.0,100,0.00,,,0.00,Wunderground v.1.13,2013-10-29 11:40:00,
2013-10-29 07:50:00,55.6,55.3,30.29,WSW,248,0.0,1.0,99,0.00,,,0.00,Wunderground v.1.13,2013-10-29 11:50:00,
2013-10-29 08:00:00,55.6,55.3,30.29,WSW,248,0.0,1.0,99,0.00,,,0.00,Wunderground v.1.13,2013-10-29 12:00:00,
2013-10-29 08:10:00,55.6,55.3,30.29,WSW,248,0.0,1.0,99,0.00,,,0.00,Wunderground v.1.13,2013-10-29 12:10:00,
2013-10-29 08:20:00,57.1,55.7,30.30,WSW,248,0.0,1.0,95,0.00,,,0.00,Wunderground v.1.13,2013-10-29 12:20:00,
2013-10-29 08:30:00,57.1,55.7,30.30,WSW,248,0.0,1.0,95,0.00,,,0.00,Wunderground v.1.13,2013-10-29 12:30:00,
2013-10-29 08:40:00,57.1,55.7,30.30,WSW,248,0.0,1.0,95,0.00,,,0.00,Wunderground v.1.13,2013-10-29 12:40:00,
2013-10-29 08:50:00,59.4,54.9,30.30,WSW,248,0.0,1.0,85,0.00,,,0.00,Wunderground v.1.13,2013-10-29 12:50:00,
2013-10-29 09:00:00,59.4,54.9,30.30,WSW,248,0.0,1.0,85,0.00,,,0.00,Wunderground v.1.13,2013-10-29 13:00:00,
2013-10-29 09:10:00,59.4,54.9,30.30,WSW,248,0.0,1.0,85,0.00,,,0.00,Wunderground v.1.13,2013-10-29 13:10:00,
2013-10-29 09:20:00,61.7,55.5,30.30,WSW,248,0.0,1.0,80,0.00,,,0.00,Wunderground v.1.13,2013-10-29 13:20:00,
2013-10-29 09:30:00,61.7,55.5,30.30,WSW,248,0.0,1.0,80,0.00,,,0.00,Wunderground v.1.13,2013-10-29 13:30:00,
2013-10-29 09:40:00,61.7,55.5,30.30,WSW,248,0.0,1.0,80,0.00,,,0.00,Wunderground v.1.13,2013-10-29 13:40:00,
2013-10-29 09:50:00,63.3,55.2,30.30,SW,225,0.0,2.0,75,0.00,,,0.00,Wunderground v.1.13,2013-10-29 13:50:00,
2013-10-29 10:00:00,63.3,55.2,30.30,SW,225,0.0,2.0,75,0.00,,,0.00,Wunderground v.1.13,2013-10-29 14:00:00,
2013-10-29 10:10:00,63.3,55.2,30.30,SW,225,0.0,2.0,75,0.00,,,0.00,Wunderground v.1.13,2013-10-29 14:10:00,
2013-10-29 10:20:00,64.9,54.9,30.30,SW,225,0.0,1.0,70,0.00,,,0.00,Wunderground v.1.13,2013-10-29 14:20:00,
2013-10-29 10:30:00,64.9,54.9,30.30,SW,225,0.0,1.0,70,0.00,,,0.00,Wunderground v.1.13,2013-10-29 14:30:00,
2013-10-29 10:40:00,64.9,54.9,30.30,SW,225,0.0,1.0,70,0.00,,,0.00,Wunderground v.1.13,2013-10-29 14:40:00,
2013-10-29 10:50:00,67.0,53.1,30.28,SSW,203,0.0,2.0,61,0.00,,,0.00,Wunderground v.1.13,2013-10-29 14:50:00,
2013-10-29 11:00:00,67.0,53.1,30.28,SSW,203,0.0,2.0,61,0.00,,,0.00,Wunderground v.1.13,2013-10-29 15:00:00,
2013-10-29 11:10:00,67.0,53.1,30.28,SSW,203,0.0,2.0,61,0.00,,,0.00,Wunderground v.1.13,2013-10-29 15:10:00,
2013-10-29 11:20:00,68.3,52.0,30.27,WSW,248,0.0,3.0,56,0.00,,,0.00,Wunderground v.1.13,2013-10-29 15:20:00,
2013-10-29 11:30:00,68.3,52.0,30.27,WSW,248,0.0,3.0,56,0.00,,,0.00,Wunderground v.1.13,2013-10-29 15:30:00,
2013-10-29 11:40:00,68.3,52.0,30.27,WSW,248,0.0,3.0,56,0.00,,,0.00,Wunderground v.1.13,2013-10-29 15:40:00,
2013-10-29 11:50:00,69.8,48.7,30.26,SSE,158,0.0,3.0,47,0.00,,,0.00,Wunderground v.1.13,2013-10-29 15:50:00,
2013-10-29 12:00:00,69.8,48.7,30.26,SSE,158,0.0,3.0,47,0.00,,,0.00,Wunderground v.1.13,2013-10-29 16:00:00,
2013-10-29 12:10:00,69.8,48.7,30.26,SSE,158,0.0,3.0,47,0.00,,,0.00,Wunderground v.1.13,2013-10-29 16:10:00,
2013-10-29 12:20:00,71.0,45.5,30.25,SE,135,0.0,4.0,40,0.00,,,0.00,Wunderground v.1.13,2013-10-29 16:20:00,
2013-10-29 12:30:00,71.0,45.5,30.25,SE,135,0.0,4.0,40,0.00,,,0.00,Wunderground v.1.13,2013-10-29 16:30:00,
2013-10-29 12:40:00,71.0,45.5,30.25,SE,135,0.0,4.0,40,0.00,,,0.00,Wunderground v.1.13,2013-10-29 16:40:00,
2013-10-29 12:50:00,70.5,48.1,30.23,NE,45,0.0,3.0,45,0.00,,,0.00,Wunderground v.1.13,2013-10-29 16:50:00,
2013-10-29 13:00:00,70.5,48.1,30.23,NE,45,0.0,3.0,45,0.00,,,0.00,Wunderground v.1.13,2013-10-29 17:00:00,
2013-10-29 13:10:00,70.5,48.1,30.23,NE,45,0.0,3.0,45,0.00,,,0.00,Wunderground v.1.13,2013-10-29 17:10:00,
2013-10-29 13:20:00,70.0,49.4,30.20,NW,315,0.0,3.0,48,0.00,,,0.00,Wunderground v.1.13,2013-10-29 17:20:00,
2013-10-29 13:30:00,70.0,49.4,30.20,NW,315,0.0,3.0,48,0.00,,,0.00,Wunderground v.1.13,2013-10-29 17:30:00,
2013-10-29 13:40:00,70.0,49.4,30.20,NW,315,0.0,3.0,48,0.00,,,0.00,Wunderground v.1.13,2013-10-29 17:40:00,
2013-10-29 13:50:00,69.5,47.2,30.20,NW,315,0.0,1.0,45,0.00,,,0.00,Wunderground v.1.13,2013-10-29 17:50:00,
2013-10-29 14:00:00,69.5,47.2,30.20,NW,315,0.0,1.0,45,0.00,,,0.00,Wunderground v.1.13,2013-10-29 18:00:00,
2013-10-29 14:10:00,69.5,47.2,30.20,NW,315,0.0,1.0,45,0.00,,,0.00,Wunderground v.1.13,2013-10-29 18:10:00,
2013-10-29 14:20:00,69.8,48.1,30.20,NW,315,0.0,1.0,46,0.00,,,0.00,Wunderground v.1.13,2013-10-29 18:20:00,
2013-10-29 14:30:00,69.8,48.1,30.20,NW,315,0.0,1.0,46,0.00,,,0.00,Wunderground v.1.13,2013-10-29 18:30:00,
2013-10-29 14:40:00,69.8,48.1,30.20,NW,315,0.0,1.0,46,0.00,,,0.00,Wunderground v.1.13,2013-10-29 18:40:00,
2013-10-29 14:50:00,71.0,48.0,30.21,WNW,293,0.0,3.0,44,0.00,,,0.00,Wunderground v.1.13,2013-10-29 18:50:00,
2013-10-29 15:00:00,71.0,48.0,30.21,WNW,293,0.0,3.0,44,0.00,,,0.00,Wunderground v.1.13,2013-10-29 19:00:00,
2013-10-29 15:10:00,71.0,48.0,30.21,WNW,293,0.0,3.0,44,0.00,,,0.00,Wunderground v.1.13,2013-10-29 19:10:00,
2013-10-29 15:20:00,71.2,48.8,30.20,West,270,0.0,3.0,45,0.00,,,0.00,Wunderground v.1.13,2013-10-29 19:20:00,
2013-10-29 15:30:00,71.2,48.8,30.20,West,270,0.0,3.0,45,0.00,,,0.00,Wunderground v.1.13,2013-10-29 19:30:00,
2013-10-29 15:40:00,71.2,48.8,30.20,West,270,0.0,3.0,45,0.00,,,0.00,Wunderground v.1.13,2013-10-29 19:40:00,
2013-10-29 15:50:00,69.8,49.2,30.20,WNW,293,0.0,3.0,48,0.00,,,0.00,Wunderground v.1.13,2013-10-29 19:50:00,
2013-10-29 16:00:00,69.8,49.2,30.20,WNW,293,0.0,3.0,48,0.00,,,0.00,Wunderground v.1.13,2013-10-29 20:00:00,
2013-10-29 16:10:00,69.8,49.2,30.20,WNW,293,0.0,3.0,48,0.00,,,0.00,Wunderground v.1.13,2013-10-29 20:10:00,
2013-10-29 16:20:00,68.8,50.5,30.20,SW,225,0.0,1.0,52,0.00,,,0.00,Wunderground v.1.13,2013-10-29 20:20:00,
2013-10-29 16:30:00,68.8,50.5,30.20,SW,225,0.0,1.0,52,0.00,,,0.00,Wunderground v.1.13,2013-10-29 20:30:00,
2013-10-29 16:40:00,68.8,50.5,30.20,SW,225,0.0,1.0,52,0.00,,,0.00,Wunderground v.1.13,2013-10-29 20:40:00,
2013-10-29 16:50:00,67.5,51.2,30.21,N/A,-737280,0.0,0.0,56,0.00,,,0.00,Wunderground v.1.13,2013-10-29 20:50:00,
2013-10-29 17:00:00,67.5,51.2,30.21,N/A,-737280,0.0,0.0,56,0.00,,,0.00,Wunderground v.1.13,2013-10-29 21:00:00,
2013-10-29 17:10:00,67.5,51.2,30.21,N/A,-737280,0.0,0.0,56,0.00,,,0.00,Wunderground v.1.13,2013-10-29 21:10:00,
2013-10-29 17:20:00,65.2,51.4,30.21,N/A,-737280,0.0,0.0,61,0.00,,,0.00,Wunderground v.1.13,2013-10-29 21:20:00,
2013-10-29 17:30:00,65.2,51.4,30.21,N/A,-737280,0.0,0.0,61,0.00,,,0.00,Wunderground v.1.13,2013-10-29 21:30:00,
2013-10-29 17:40:00,65.2,51.4,30.21,N/A,-737280,0.0,0.0,61,0.00,,,0.00,Wunderground v.1.13,2013-10-29 21:40:00,
2013-10-29 17:50:00,63.6,52.0,30.22,N/A,-737280,0.0,0.0,66,0.00,,,0.00,Wunderground v.1.13,2013-10-29 21:50:00,
2013-10-29 18:00:00,63.6,52.0,30.22,N/A,-737280,0.0,0.0,66,0.00,,,0.00,Wunderground v.1.13,2013-10-29 22:00:00,
2013-10-29 18:10:00,63.6,52.0,30.22,N/A,-737280,0.0,0.0,66,0.00,,,0.00,Wunderground v.1.13,2013-10-29 22:10:00,
2013-10-29 18:20:00,62.2,52.3,30.22,N/A,-737280,0.0,0.0,70,0.00,,,0.00,Wunderground v.1.13,2013-10-29 22:20:00,
2013-10-29 18:30:00,62.2,52.3,30.22,N/A,-737280,0.0,0.0,70,0.00,,,0.00,Wunderground v.1.13,2013-10-29 22:30:00,
2013-10-29 18:40:00,62.2,52.3,30.22,N/A,-737280,0.0,0.0,70,0.00,,,0.00,Wunderground v.1.13,2013-10-29 22:40:00,
2013-10-29 18:50:00,61.5,52.0,30.21,N/A,-737280,0.0,0.0,71,0.00,,,0.00,Wunderground v.1.13,2013-10-29 22:50:00,
2013-10-29 19:00:00,61.5,52.0,30.21,N/A,-737280,0.0,0.0,71,0.00,,,0.00,Wunderground v.1.13,2013-10-29 23:00:00,
2013-10-29 19:10:00,61.5,52.0,30.21,N/A,-737280,0.0,0.0,71,0.00,,,0.00,Wunderground v.1.13,2013-10-29 23:10:00,
2013-10-29 19:20:00,61.1,52.0,30.19,N/A,-737280,0.0,0.0,72,0.00,,,0.00,Wunderground v.1.13,2013-10-29 23:20:00,
2013-10-29 19:30:00,61.1,52.0,30.19,N/A,-737280,0.0,0.0,72,0.00,,,0.00,Wunderground v.1.13,2013-10-29 23:30:00,
2013-10-29 19:40:00,61.1,52.0,30.19,N/A,-737280,0.0,0.0,72,0.00,,,0.00,Wunderground v.1.13,2013-10-29 23:40:00,
2013-10-29 19:50:00,60.6,51.5,30.19,N/A,-737280,0.0,0.0,72,0.00,,,0.00,Wunderground v.1.13,2013-10-29 23:50:00,
2013-10-29 20:00:00,60.6,51.5,30.19,N/A,-737280,0.0,0.0,72,0.00,,,0.00,Wunderground v.1.13,2013-10-30 00:00:00,
2013-10-29 20:10:00,60.6,51.5,30.19,N/A,-737280,0.0,0.0,72,0.00,,,0.00,Wunderground v.1.13,2013-10-30 00:10:00,
2013-10-29 20:20:00,60.3,51.6,30.21,N/A,-737280,0.0,0.0,73,0.00,,,0.00,Wunderground v.1.13,2013-10-30 00:20:00,
2013-10-29 20:30:00,60.3,51.6,30.21,N/A,-737280,0.0,0.0,73,0.00,,,0.00,Wunderground v.1.13,2013-10-30 00:30:00,
2013-10-29 20:40:00,60.3,51.6,30.21,N/A,-737280,0.0,0.0,73,0.00,,,0.00,Wunderground v.1.13,2013-10-30 00:40:00,
2013-10-29 20:50:00,59.8,52.6,30.22,N/A,-737280,0.0,0.0,77,0.00,,,0.00,Wunderground v.1.13,2013-10-30 00:50:00,
2013-10-29 21:00:00,59.8,52.6,30.22,N/A,-737280,0.0,0.0,77,0.00,,,0.00,Wunderground v.1.13,2013-10-30 01:00:00,
2013-10-29 21:10:00,59.8,52.6,30.22,N/A,-737280,0.0,0.0,77,0.00,,,0.00,Wunderground v.1.13,2013-10-30 01:10:00,
2013-10-29 21:20:00,59.1,52.6,30.21,N/A,-737280,0.0,0.0,79,0.00,,,0.00,Wunderground v.1.13,2013-10-30 01:20:00,
2013-10-29 21:30:00,59.1,52.6,30.21,N/A,-737280,0.0,0.0,79,0.00,,,0.00,Wunderground v.1.13,2013-10-30 01:30:00,
2013-10-29 21:40:00,59.1,52.6,30.21,N/A,-737280,0.0,0.0,79,0.00,,,0.00,Wunderground v.1.13,2013-10-30 01:40:00,
2013-10-29 21:50:00,58.5,52.4,30.22,N/A,-737280,0.0,0.0,80,0.00,,,0.00,Wunderground v.1.13,2013-10-30 01:50:00,
2013-10-29 22:00:00,58.5,52.4,30.22,N/A,-737280,0.0,0.0,80,0.00,,,0.00,Wunderground v.1.13,2013-10-30 02:00:00,
2013-10-29 22:10:00,58.5,52.4,30.22,N/A,-737280,0.0,0.0,80,0.00,,,0.00,Wunderground v.1.13,2013-10-30 02:10:00,
2013-10-29 22:20:00,58.5,52.4,30.21,N/A,-737280,0.0,0.0,80,0.00,,,0.00,Wunderground v.1.13,2013-10-30 02:20:00,
2013-10-29 22:30:00,58.5,52.4,30.21,N/A,-737280,0.0,0.0,80,0.00,,,0.00,Wunderground v.1.13,2013-10-30 02:30:00,
2013-10-29 22:40:00,58.5,52.4,30.21,N/A,-737280,0.0,0.0,80,0.00,,,0.00,Wunderground v.1.13,2013-10-30 02:40:00,
2013-10-29 22:50:00,58.5,52.4,30.20,N/A,-737280,0.0,0.0,80,0.00,,,0.00,Wunderground v.1.13,2013-10-30 02:50:00,
2013-10-29 23:00:00,58.5,52.4,30.20,N/A,-737280,0.0,0.0,80,0.00,,,0.00,Wunderground v.1.13,2013-10-30 03:00:00,
2013-10-29 23:10:00,58.5,52.4,30.20,N/A,-737280,0.0,0.0,80,0.00,,,0.00,Wunderground v.1.13,2013-10-30 03:10:00,
2013-10-29 23:20:00,58.6,52.4,30.18,N/A,-737280,0.0,0.0,80,0.00,,,0.00,Wunderground v.1.13,2013-10-30 03:20:00,
2013-10-29 23:30:00,58.6,52.4,30.18,N/A,-737280,0.0,0.0,80,0.00,,,0.00,Wunderground v.1.13,2013-10-30 03:30:00,
2013-10-29 23:40:00,58.6,52.4,30.18,N/A,-737280,0.0,0.0,80,0.00,,,0.00,Wunderground v.1.13,2013-10-30 03:40:00,
2013-10-29 23:50:00,58.3,52.5,30.18,N/A,-737280,0.0,0.0,81,0.00,,,0.00,Wunderground v.1.13,2013-10-30 03:50:00,